Marine Sanaga — 3EMH6 — position and weather

sailwx.info

Track history (hours):
 
Tides and Currents Weather Stations Pressure Air Temp Water Temp Dewpoint Dewpoint Depression Visibility Wind Speed Wind Dir Waves Ship Positions

Marine Sanaga

Last reported at 2014-Dec-18 20:31 UTC. Time now 2014-Dec-18 20:55 UTC.
Position N 36°08' W 005°18'.

Length 172 m; draft 6.7 m.

Type: Cargo ship. MMSI: 357573000.

Date/timePositionNaut miles runAvg speedWind from/ knotsBaromVisibWave heightAir tempDewpointWater temp
2014-Dec-18 20:31N 36°08' W 005°18'0 0.1
2014-Dec-18 19:31N 36°08' W 005°18'0 0.1
2014-Dec-18 18:33N 36°08' W 005°18'3 3.5
2014-Dec-18 17:33N 36°06' W 005°22'2 2.2
2014-Dec-18 16:26N 36°08' W 005°22'0 0.1
2014-Dec-18 15:32N 36°08' W 005°22'0 0.0
2014-Dec-18 14:32N 36°08' W 005°22'0 0.0
2014-Dec-18 13:32N 36°08' W 005°22'0 0.1
2014-Dec-18 12:33N 36°08' W 005°22'0 0.0
2014-Dec-18 11:26N 36°08' W 005°22'0 0.0
2014-Dec-18 10:32N 36°08' W 005°22'0 0.1
2014-Dec-18 09:26N 36°08' W 005°22'0 0.0
2014-Dec-18 08:32N 36°08' W 005°22'0 0.0
2014-Dec-18 07:32N 36°08' W 005°22'2 2.3
2014-Dec-18 06:32N 36°06' W 005°22'3 2.9
2014-Dec-18 05:33N 36°06' W 005°19'4 4.1
2014-Dec-18 04:33N 36°07' W 005°14'  
Track history (hours):
 
Tides and Currents Weather Stations Pressure Air Temp Water Temp Dewpoint Dewpoint Depression Visibility Wind Speed Wind Dir Waves Ship Positions

Marine Sanaga

Last reported at 2014-Dec-18 20:31 UTC. Time now 2014-Dec-18 20:55 UTC.
Position N 36°08' W 005°18'.

Length 172 m; draft 6.7 m.

Type: Cargo ship. MMSI: 357573000.

Date/timePositionNaut miles runAvg speedWind from/ knotsBaromVisibWave heightAir tempDewpointWater temp
2014-Dec-18 20:31N 36°08' W 005°18'0 0.1
2014-Dec-18 19:31N 36°08' W 005°18'0 0.1
2014-Dec-18 18:33N 36°08' W 005°18'3 3.5
2014-Dec-18 17:33N 36°06' W 005°22'2 2.2
2014-Dec-18 16:26N 36°08' W 005°22'0 0.1
2014-Dec-18 15:32N 36°08' W 005°22'0 0.0
2014-Dec-18 14:32N 36°08' W 005°22'0 0.0
2014-Dec-18 13:32N 36°08' W 005°22'0 0.1
2014-Dec-18 12:33N 36°08' W 005°22'0 0.0
2014-Dec-18 11:26N 36°08' W 005°22'0 0.0
2014-Dec-18 10:32N 36°08' W 005°22'0 0.1
2014-Dec-18 09:26N 36°08' W 005°22'0 0.0
2014-Dec-18 08:32N 36°08' W 005°22'0 0.0
2014-Dec-18 07:32N 36°08' W 005°22'2 2.3
2014-Dec-18 06:32N 36°06' W 005°22'3 2.9
2014-Dec-18 05:33N 36°06' W 005°19'4 4.1
2014-Dec-18 04:33N 36°07' W 005°14'  

Dump ship's entire track history